Flag for Canada Weather past 2 weeks in Lethbridge, Alberta, Canada

Now
54 °F

Clear.


Feels Like: 48 °F
Forecast: 48 / 65 °F
Wind: 23 mph from West

Location: Lethbridge

Current Time: Aug 31, 2015 at 1:14:41 AM

Latest Report: Aug 31, 2015 at 12:00 AM


Visibility: 9 mi

Pressure: 29.74 "Hg (26.79 "Hg at 872m altitude)

Humidity: 51%

Dew point: 36 °F

Location of LethbridgeLocation

Historic Weather in Lethbridge — Graph

°F

Lethbridge temperature yesterday

Maximum temperature yesterday: 75 °F (at 1:00 PM)
Minimum temperature yesterday: 50 °F (at 11:00 PM)
Average temperature yesterday: 63 °F

Past Weeks' High & Low Weather Summary

 TemperatureHumidityPressure
High90 °F (Aug 27, 3:00 PM)100% (Aug 17, 5:00 AM)30.30 "Hg (Aug 17, 5:00 AM)
Low36 °F (Aug 23, 5:00 AM)13% (Aug 25, 3:00 PM)29.57 "Hg (Aug 29, 4:00 PM)
Average62 °F58%29.95 "Hg
* Reported Midnight between Aug 15 and Aug 16 — Midnight between Aug 30 and Aug 31, Lethbridge, Weather by CustomWeather, © 2015

Note: Actual official high and low records may vary slightly from our data, if they occured in-between our weather recording intervals... More about our weather records

Advertising

Lethbridge weather history for previous 24 hours

 ConditionsComfort  
Time TempWeatherWind HumidityBarometerVisibility
12:00 AM
Mon, Aug 31
54 °FClear.23 mph51%29.74 "Hg9 mi
11:00 PM
Sun, Aug 30
50 °FClear.10 mph62%29.75 "Hg9 mi
10:00 PM55 °FPassing clouds.18 mph51%29.75 "Hg15 mi
9:00 PM57 °FPassing clouds.17 mph48%29.75 "Hg15 mi
8:00 PM61 °FScattered clouds.23 mph42%29.70 "Hg25 mi
7:00 PM64 °FPartly sunny.21 mph34%29.72 "Hg30 mi
6:00 PM66 °FBroken clouds.18 mph37%29.72 "Hg25 mi
5:00 PM68 °FBroken clouds.28 mph35%29.70 "Hg25 mi
4:00 PM72 °FScattered clouds.24 mph31%29.68 "Hg25 mi
3:00 PM70 °FBroken clouds.33 mph33%29.66 "Hg25 mi
2:00 PM75 °FBroken clouds.24 mph22%29.64 "Hg30 mi
1:00 PM75 °FScattered clouds.21 mph22%29.64 "Hg25 mi
12:00 PM73 °FScattered clouds.21 mph25%29.66 "Hg30 mi
11:00 AM72 °FPassing clouds.23 mph25%29.67 "Hg20 mi
10:00 AM68 °FPassing clouds.20 mph33%29.67 "Hg25 mi
9:00 AM63 °FPartly sunny.16 mph42%29.69 "Hg25 mi
8:00 AM63 °FPartly sunny.16 mph42%29.69 "Hg20 mi
7:00 AM61 °FPassing clouds.12 mph45%29.69 "Hg20 mi
6:00 AM54 °FMostly cloudy.6 mph58%29.70 "Hg15 mi
5:00 AM54 °FClear.9 mph54%29.69 "Hg9 mi
4:00 AM61 °FClear.16 mph42%29.66 "Hg9 mi
3:00 AM61 °FPassing clouds.13 mph42%29.67 "Hg9 mi
2:00 AM63 °FMostly cloudy.14 mph37%29.66 "Hg9 mi
1:00 AM57 °FPassing clouds.8 mph51%29.70 "Hg9 mi
Weather by CustomWeather, © 2015

See weather overviewHow to use our weather pages